EW4538 Weather Reports


time (UTC)temp
F
wind
direction
speed
knots
gust
knots
rain 1hr
in
rain 24hr
in
rain mn
in
humidity
%
barometer
mb
20260905213804 98 154 5.2 11.3 0.00 0.00 0.00 31 1009.9
20260905211305 96 178 4.3 8.7 0.00 0.00 0.00 33 1010.3
20260905210804 96 168 4.3 10.4 0.00 0.00 0.00 33 1010.3
20260905210305 97 163 7.0 11.3 0.00 0.00 0.00 33 1010.4
20260905204804 97 122 4.3 10.4 0.00 0.00 0.00 32 1010.6
20260905203804 97 92 0.9 7.0 0.00 0.00 0.00 32 1010.8
20260905203304 96 51 2.6 14.8 0.00 0.00 0.00 33 1010.9
20260905201804 96 240 2.6 5.2 0.00 0.00 0.00 34 1011.1
20260905201304 96 168 5.2 12.2 0.00 0.00 0.00 34 1011.2
20260905200804 97 147 7.8 13.9 0.00 0.00 0.00 33 1011.2
20260905200304 98 163 2.6 13.9 0.00 0.00 0.00 35 1011.3
20260905194804 96 127 6.1 13.0 0.00 0.00 0.00 36 1011.5
20260905194304 96 169 6.1 12.2 0.00 0.00 0.00 36 1011.7
20260905193304 97 160 5.2 14.8 0.00 0.00 0.00 35 1011.8
20260905191804 97 161 6.1 13.0 0.00 0.00 0.00 35 1012.1
20260905191304 96 169 3.5 7.8 0.00 0.00 0.00 37 1012.2
20260905190804 95 280 1.7 5.2 0.00 0.00 0.00 38 1012.3
20260905190304 95 244 4.3 11.3 0.00 0.00 0.00 39 1012.4
20260905184805 94 149 9.6 15.6 0.00 0.00 0.00 41 1012.7
20260905184304 94 132 8.7 12.2 0.00 0.00 0.00 41 1012.7
20260905183804 94 123 6.1 10.4 0.00 0.00 0.00 42 1012.8
20260905183304 93 171 3.5 13.9 0.00 0.00 0.00 44 1012.8
20260905180804 93 109 7.8 13.0 0.00 0.00 0.00 45 1013.3
20260905180304 92 151 6.1 13.9 0.00 0.00 0.00 45 1013.4
20260905174804 92 204 2.6 11.3 0.00 0.00 0.00 46 1013.7
20260905174304 92 175 2.6 5.2 0.00 0.00 0.00 47 1013.8
20260905173804 93 176 4.3 10.4 0.00 0.00 0.00 48 1013.9
20260905173304 92 162 2.6 8.7 0.00 0.00 0.00 48 1013.9
20260905171804 91 167 5.2 12.2 0.00 0.00 0.00 49 1014.0
20260905171304 90 184 0.9 2.6 0.00 0.00 0.00 52 1014.0
20260905170804 89 195 4.3 8.7 0.00 0.00 0.00 52 1014.1
20260905170304 89 172 6.1 13.0 0.00 0.00 0.00 52 1014.1
20260905164804 89 190 4.3 10.4 0.00 0.00 0.00 54 1014.2
20260905164304 89 187 5.2 8.7 0.00 0.00 0.00 55 1014.2
20260905163804 89 174 4.3 10.4 0.00 0.00 0.00 54 1014.2
20260905163304 90 203 4.3 13.9 0.00 0.00 0.00 54 1014.3
20260905161804 89 161 4.3 12.2 0.00 0.00 0.00 58 1014.2
20260905160804 88 167 4.3 10.4 0.00 0.00 0.00 58 1014.2
20260905160304 88 167 5.2 13.0 0.00 0.00 0.00 58 1014.3
20260905153804 87 296 1.7 4.3 0.00 0.00 0.00 66 1014.4
20260905153304 86 157 1.7 5.2 0.00 0.00 0.00 68 1014.4
20260905151304 84 175 3.5 11.3 0.00 0.00 0.00 71 1014.4
20260905150804 83 158 4.3 8.7 0.00 0.00 0.00 72 1014.4
20260905144804 84 154 4.3 8.7 0.00 0.00 0.00 72 1014.3
20260905144304 83 165 4.3 8.7 0.00 0.00 0.00 74 1014.3
20260905143304 82 155 2.6 10.4 0.00 0.00 0.00 75 1014.4
20260905141805 81 172 4.3 8.7 0.00 0.00 0.00 77 1014.2
20260905141304 81 161 5.2 8.7 0.00 0.00 0.00 77 1014.2
20260905140804 81 172 1.7 5.2 0.00 0.00 0.00 78 1014.1
20260905140304 81 176 2.6 8.7 0.00 0.00 0.00 79 1014.2
20260905134304 79 175 4.3 8.7 0.00 0.01 0.00 80 1014.0
20260905133804 79 146 4.3 7.8 0.00 0.01 0.00 80 1014.1
20260905133304 79 162 5.2 7.8 0.00 0.01 0.00 80 1014.0
20260905131804 78 154 5.2 8.7 0.00 0.01 0.00 80 1013.8
20260905131304 78 163 4.3 7.8 0.00 0.01 0.00 81 1013.7
20260905130804 77 173 2.6 2.6 0.00 0.01 0.00 81 1013.7
20260905130304 77 173 0.9 2.6 0.00 0.01 0.00 81 1013.6
20260905124804 76 173 0.0 0.0 0.00 0.01 0.00 81 1013.5
20260905124304 76 173 0.0 0.0 0.00 0.01 0.00 81 1013.5
20260905123804 76 173 0.0 0.0 0.00 0.01 0.00 81 1013.4
20260905123304 76 173 0.0 0.0 0.00 0.01 0.00 81 1013.4
20260905121804 76 173 0.0 0.0 0.00 0.01 0.00 81 1013.4
20260905121304 76 173 0.0 0.0 0.00 0.01 0.00 81 1013.3
20260905120304 76 173 0.0 1.7 0.00 0.01 0.00 81 1013.3
20260905114804 75 173 0.0 0.9 0.00 0.01 0.00 81 1013.2
20260905113303 76 173 0.9 2.6 0.00 0.01 0.00 81 1013.0
20260905111304 76 173 0.0 0.0 0.00 0.01 0.00 81 1012.9
20260905110805 76 173 0.0 0.0 0.00 0.01 0.00 81 1012.9
20260905110304 76 173 0.0 0.0 0.00 0.01 0.00 81 1012.9
20260905104304 76 173 0.0 0.0 0.00 0.01 0.00 81 1012.8
20260905103804 76 173 0.0 0.9 0.00 0.01 0.00 81 1012.7
20260905103304 76 173 0.9 1.7 0.00 0.01 0.00 81 1012.7
20260905101804 76 173 0.0 0.9 0.00 0.01 0.00 81 1012.9
20260905101304 76 173 0.0 1.7 0.00 0.01 0.00 81 1012.8
20260905100804 76 173 0.0 0.9 0.00 0.01 0.00 81 1012.8
20260905100304 76 173 0.0 0.9 0.00 0.01 0.00 80 1012.7
20260905094804 76 173 0.0 0.0 0.00 0.01 0.00 80 1012.7
20260905093803 77 173 0.0 0.0 0.00 0.01 0.00 80 1012.7
20260905093304 77 173 0.0 0.9 0.00 0.01 0.00 80 1012.6
20260905091804 77 173 0.0 1.7 0.00 0.01 0.00 79 1012.7
20260905091303 77 173 0.0 1.7 0.00 0.01 0.00 79 1012.8
20260905090303 78 173 0.9 2.6 0.00 0.01 0.00 79 1012.8
20260905084804 78 173 1.7 5.2 0.00 0.01 0.00 79 1012.9
20260905084305 78 173 1.7 5.2 0.00 0.01 0.00 79 1012.8
20260905083305 78 165 1.7 7.0 0.00 0.01 0.00 78 1012.8
20260905074805 79 166 4.3 8.7 0.00 0.01 0.00 77 1013.1
20260905074304 79 201 2.6 7.8 0.00 0.01 0.00 77 1013.2
20260905073805 79 183 4.3 7.8 0.00 0.01 0.00 77 1013.2
20260905073305 79 179 2.6 8.7 0.00 0.01 0.00 77 1013.2
20260905070805 79 164 2.6 5.2 0.00 0.01 0.00 76 1013.3
20260905064805 80 165 4.3 7.8 0.00 0.01 0.00 75 1013.4
20260905064305 80 156 4.3 10.4 0.00 0.01 0.00 75 1013.4
20260905063805 80 168 2.6 7.0 0.00 0.01 0.00 75 1013.4
20260905063305 80 156 4.3 10.4 0.00 0.01 0.00 75 1013.4
20260905061805 80 148 3.5 7.8 0.00 0.01 0.00 74 1013.5
20260905061305 80 159 6.1 11.3 0.00 0.01 0.00 74 1013.4
20260905060805 80 147 4.3 8.7 0.00 0.01 0.00 73 1013.3
20260905060305 80 161 6.1 14.8 0.00 0.01 0.00 73 1013.3
20260905054805 81 151 7.0 13.0 0.00 0.01 0.00 72 1013.2
20260905053805 81 149 6.1 10.4 0.00 0.01 0.00 72 1013.3
20260905051805 81 156 6.1 8.7 0.00 0.01 0.00 70 1013.5
20260905051305 81 155 6.1 12.2 0.00 0.01 0.00 70 1013.4
20260905050805 81 169 5.2 11.3 0.00 0.01 0.00 70 1013.5
20260905050305 81 156 7.8 15.6 0.00 0.01 0.00 69 1013.4
20260905044805 82 165 7.8 13.9 0.00 0.01 0.01 68 1013.5
20260905044305 82 168 6.1 13.0 0.00 0.01 0.01 68 1013.5
20260905043805 82 161 6.1 13.0 0.00 0.01 0.01 68 1013.5
20260905043305 82 148 5.2 12.2 0.00 0.01 0.01 67 1013.4
20260905041305 82 152 8.7 14.8 0.00 0.01 0.01 66 1013.3
20260905040805 82 153 6.1 11.3 0.00 0.01 0.01 66 1013.3
20260905040304 83 163 7.0 12.2 0.00 0.01 0.01 66 1013.3
20260905034805 83 157 7.8 12.2 0.00 0.01 0.01 65 1013.3
20260905034305 83 146 5.2 12.2 0.00 0.01 0.01 65 1013.3
20260905033805 83 156 6.1 11.3 0.00 0.01 0.01 65 1013.3
20260905033305 83 146 6.1 12.2 0.00 0.01 0.01 65 1013.3
20260905031805 83 142 5.2 10.4 0.00 0.01 0.01 65 1013.1
20260905031305 83 156 8.7 13.9 0.00 0.01 0.01 65 1013.0
20260905030305 83 155 5.2 11.3 0.00 0.01 0.01 65 1013.0
20260905024805 84 155 6.1 12.2 0.00 0.01 0.01 63 1012.8
20260905024304 84 153 8.7 13.0 0.00 0.01 0.01 63 1012.7
20260905023805 84 157 7.8 13.0 0.00 0.01 0.01 63 1012.6
20260905023305 84 153 8.7 14.8 0.00 0.01 0.01 63 1012.5
20260905021805 85 142 7.0 13.0 0.00 0.01 0.01 62 1012.5
20260905021305 85 141 7.0 12.2 0.00 0.01 0.01 62 1012.5
20260905020805 85 148 10.4 13.0 0.00 0.01 0.01 61 1012.4
20260905014805 86 159 6.1 13.0 0.00 0.01 0.01 60 1012.3
20260905014305 86 151 7.8 11.3 0.00 0.01 0.01 59 1012.3
20260905013305 86 135 7.8 12.2 0.00 0.01 0.01 58 1012.1
20260905011805 86 144 6.1 8.7 0.00 0.01 0.01 57 1012.0
20260905011305 86 163 7.0 12.2 0.00 0.01 0.01 57 1011.9
20260905010804 87 155 7.0 12.2 0.00 0.01 0.01 56 1011.9
20260905010305 87 157 9.6 14.8 0.00 0.01 0.01 56 1011.8
20260905004805 87 149 7.0 13.0 0.00 0.01 0.01 54 1011.8
20260905003804 88 136 7.8 14.8 0.00 0.01 0.01 53 1011.8
20260905001804 90 164 7.0 15.6 0.00 0.01 0.01 39 1011.5
20260905001305 90 154 7.8 15.6 0.00 0.01 0.01 38 1011.4
20260905000804 90 160 9.6 15.6 0.00 0.01 0.01 38 1011.4
20260905000304 90 171 6.1 14.8 0.00 0.01 0.01 39 1011.3
20260904234804 91 156 7.0 13.0 0.00 0.01 0.01 38 1011.1
20260904234305 91 161 8.7 15.6 0.00 0.01 0.01 38 1011.1
20260904233805 91 158 12.2 20.0 0.00 0.01 0.01 38 1011.1
20260904231304 91 160 8.7 15.6 0.00 0.01 0.01 39 1011.0
20260904230805 92 159 11.3 15.6 0.00 0.01 0.01 38 1011.1
20260904230305 92 174 8.7 15.6 0.00 0.01 0.01 36 1011.1
20260904224304 92 168 6.1 14.8 0.00 0.01 0.01 42 1011.4
20260904223305 92 152 8.7 17.4 0.00 0.01 0.01 37 1011.4
20260904221804 92 162 8.7 14.8 0.00 0.01 0.01 41 1011.4
20260904220804 92 149 8.7 22.6 0.00 0.01 0.01 43 1011.4
20260904220304 92 137 10.4 22.6 0.00 0.01 0.01 43 1011.4
20260904214805 92 152 10.4 14.8 0.00 0.01 0.01 46 1011.5